Fremont, NE

4:58 AM CDT on April 24, 2017 (GMT -0500)
Fremont Municipal

Weather History for KFET - December, 2014

Change the Weather History Date:

Friday, December 26, 2014

  Actual Average Record
Temperature  
Mean Temperature 31 °F -  
Max Temperature 34 °F 33 °F 63 °F (1959)
Min Temperature 28 °F 14 °F -8 °F (1962)
Degree Days  
Heating Degree Days 34    
Moisture  
Dew Point 30 °F    
Average Humidity 92    
Maximum Humidity 98    
Minimum Humidity 86    
Precipitation  
Precipitation 0.02 in - - ()
Sea Level Pressure  
Sea Level Pressure 29.97 in    
Wind  
Wind Speed 10 mph (North)    
Max Wind Speed 15 mph    
Max Gust Speed 22 mph    
Visibility 7 miles    
Events Snow    
Averages and records for this station are not official NWS values.
T = Trace of Precipitation, MM = Missing Value Source: NWS Daily Summary

Daily Weather History Graph

Daily Weather History Graph

Search for Another Location

Airport or City:

Trip Planner

Search our weather history database for the weather conditions in past years. The results will help you decide how hot, cold, wet, or windy it might be!

Date:

Astronomy

Dec. 26, 2014 Rise Set
Actual Time 7:51 AM CST 5:02 PM CST
Civil Twilight 7:19 AM CST 5:33 PM CST
Nautical Twilight 6:44 AM CST 6:08 PM CST
Astronomical Twilight 6:11 AM CST 6:42 PM CST
Moon 11:00 AM CST (12/26) 10:50 PM CST (12/26)
Length of Visible Light 10h 14m
Length of Day
9h 11m
Waxing Crescent, 28% of the Moon is Illuminated
Dec 26
Waxing Crescent
Dec 28
First Quarter
Jan 4
Full
Jan 13
Last Quarter
Jan 20
New

Hourly Weather History & Observations

Time (CST) Temp. Windchill Dew Point Humidity Pressure Visibility Wind Dir Wind Speed Gust Speed Precip Events Conditions
12:15 AM 32.0 °F 24.2 °F 30.9 °F 96% 29.77 in 10.0 mi NNW 9.2 mph - N/A   Clear
12:35 AM 32.0 °F 24.8 °F 31.1 °F 96% 29.77 in 10.0 mi NNW 8.1 mph - N/A   Clear
12:55 AM 32.5 °F 24.2 °F 32.0 °F 98% 29.79 in 10.0 mi NNW 10.4 mph - N/A   Mostly Cloudy
1:15 AM 33.3 °F 23.7 °F 32.2 °F 96% 29.80 in 7.0 mi NNW 13.8 mph 19.6 mph N/A   Overcast
1:35 AM 33.4 °F 25.4 °F 32.5 °F 96% 29.81 in 7.0 mi NNW 10.4 mph - N/A   Overcast
1:55 AM 33.8 °F 26.4 °F 32.7 °F 96% 29.81 in 7.0 mi NNW 9.2 mph 18.4 mph N/A   Overcast
2:15 AM 34.0 °F 25.0 °F 32.7 °F 95% 29.82 in 7.0 mi NNW 12.7 mph 19.6 mph N/A   Overcast
2:35 AM 34.2 °F 26.2 °F 32.5 °F 94% 29.83 in 7.0 mi North 10.4 mph 20.7 mph N/A   Overcast
2:55 AM 34.2 °F 25.7 °F 32.4 °F 93% 29.84 in 7.0 mi NNW 11.5 mph 17.3 mph N/A   Overcast
3:15 AM 34.0 °F 24.2 °F 32.4 °F 94% 29.86 in 7.0 mi NNW 15.0 mph 19.6 mph N/A   Overcast
3:35 AM 33.6 °F 24.1 °F 32.2 °F 94% 29.87 in 7.0 mi NNW 13.8 mph 19.6 mph N/A   Overcast
3:55 AM 33.4 °F 23.9 °F 32.2 °F 95% 29.87 in 7.0 mi NNW 13.8 mph 17.3 mph N/A   Overcast
4:15 AM 33.3 °F 25.1 °F 32.0 °F 95% 29.88 in 7.0 mi NNW 10.4 mph - N/A   Overcast
4:35 AM 33.3 °F 24.1 °F 32.0 °F 95% 29.89 in 7.0 mi NW 12.7 mph 19.6 mph N/A   Overcast
4:55 AM 33.1 °F 24.4 °F 32.0 °F 96% 29.89 in 7.0 mi NNW 11.5 mph - N/A   Overcast
5:15 AM 33.1 °F 24.9 °F 31.6 °F 94% 29.90 in 10.0 mi NNW 10.4 mph 17.3 mph N/A   Overcast
5:35 AM 32.9 °F 23.7 °F 31.5 °F 94% 29.91 in 10.0 mi NNW 12.7 mph 16.1 mph N/A   Overcast
5:55 AM 32.9 °F 24.7 °F 31.1 °F 93% 29.91 in 10.0 mi NNW 10.4 mph 16.1 mph N/A   Overcast
6:15 AM 32.7 °F 25.7 °F 31.3 °F 94% 29.93 in 10.0 mi NNW 8.1 mph 16.1 mph N/A   Overcast
6:35 AM 32.5 °F 25.5 °F 31.1 °F 94% 29.94 in 10.0 mi NNW 8.1 mph 17.3 mph N/A   Overcast
6:55 AM 32.4 °F 24.0 °F 31.1 °F 95% 29.95 in 10.0 mi NNW 10.4 mph 16.1 mph N/A   Overcast
7:15 AM 32.5 °F 24.8 °F 31.1 °F 94% 29.96 in 10.0 mi North 9.2 mph 19.6 mph N/A   Overcast
7:35 AM 32.4 °F 24.6 °F 31.1 °F 95% 29.97 in 10.0 mi NNW 9.2 mph - N/A   Overcast
7:55 AM 32.4 °F 24.0 °F 31.1 °F 95% 29.97 in 10.0 mi NNW 10.4 mph - N/A   Overcast
8:15 AM 32.4 °F 23.0 °F 30.9 °F 94% 29.96 in 10.0 mi North 12.7 mph 17.3 mph N/A   Overcast
8:35 AM 32.0 °F 23.6 °F 30.7 °F 95% 29.97 in 10.0 mi North 10.4 mph 20.7 mph N/A   Overcast
8:55 AM 32.2 °F 21.8 °F 30.6 °F 94% 29.98 in 10.0 mi North 15.0 mph 21.9 mph N/A   Overcast
9:15 AM 32.2 °F 22.7 °F 30.6 °F 94% 30.00 in 10.0 mi North 12.7 mph 19.6 mph N/A   Overcast
9:35 AM 32.2 °F 23.2 °F 30.2 °F 92% 30.00 in 10.0 mi North 11.5 mph 20.7 mph N/A   Overcast
9:55 AM 32.4 °F 23.0 °F 30.4 °F 92% 30.01 in 10.0 mi North 12.7 mph 18.4 mph N/A   Overcast
10:15 AM 32.2 °F 23.2 °F 30.6 °F 94% 30.01 in 10.0 mi North 11.5 mph 18.4 mph N/A   Overcast
10:35 AM 32.2 °F 23.2 °F 30.2 °F 92% 30.02 in 10.0 mi North 11.5 mph 16.1 mph N/A   Overcast
10:55 AM 32.2 °F 24.4 °F 29.8 °F 91% 30.02 in 10.0 mi North 9.2 mph 18.4 mph N/A   Overcast
11:15 AM 32.2 °F 23.8 °F 29.7 °F 90% 30.00 in 10.0 mi North 10.4 mph 17.3 mph N/A   Overcast
11:35 AM 32.2 °F 23.2 °F 29.3 °F 89% 30.01 in 10.0 mi North 11.5 mph 16.1 mph N/A   Overcast
11:55 AM 32.5 °F 25.5 °F 29.3 °F 88% 30.01 in 7.0 mi North 8.1 mph 16.1 mph N/A   Overcast
12:15 PM 32.4 °F 25.3 °F 29.3 °F 88% 30.00 in 10.0 mi North 8.1 mph - N/A   Overcast
12:35 PM 32.4 °F 24.6 °F 28.9 °F 87% 29.99 in 7.0 mi North 9.2 mph - N/A   Overcast
12:55 PM 32.5 °F 24.2 °F 28.8 °F 86% 29.98 in 5.0 mi North 10.4 mph 17.3 mph N/A   Overcast
1:15 PM 32.4 °F 24.6 °F 28.9 °F 87% 29.97 in 7.0 mi North 9.2 mph - N/A   Overcast
1:35 PM 32.5 °F 26.2 °F 29.1 °F 87% 29.98 in 5.0 mi North 6.9 mph - N/A   Overcast
1:55 PM 32.4 °F 23.5 °F 28.8 °F 87% 29.98 in 4.0 mi North 11.5 mph 17.3 mph N/A   Overcast
2:15 PM 32.4 °F 25.3 °F 28.9 °F 87% 29.99 in 4.0 mi North 8.1 mph - N/A   Overcast
2:35 PM 32.2 °F 26.7 °F 28.9 °F 88% 30.00 in 5.0 mi North 5.8 mph 16.1 mph N/A   Overcast
2:55 PM 32.2 °F 25.8 °F 29.1 °F 88% 30.00 in 4.0 mi North 6.9 mph - N/A   Overcast
3:15 PM 32.2 °F 23.8 °F 28.9 °F 88% 30.00 in 4.0 mi North 10.4 mph - N/A   Overcast
3:35 PM 32.4 °F 25.3 °F 29.1 °F 88% 30.01 in 5.0 mi North 8.1 mph - N/A   Overcast
3:55 PM 32.2 °F 24.4 °F 28.9 °F 88% 30.01 in 7.0 mi North 9.2 mph - N/A   Overcast
4:15 PM 32.2 °F 24.4 °F 28.9 °F 88% 30.01 in 5.0 mi North 9.2 mph 17.3 mph N/A   Overcast
4:35 PM 32.2 °F 25.0 °F 28.9 °F 88% 30.01 in 7.0 mi North 8.1 mph - N/A   Overcast
4:55 PM 32.2 °F 24.4 °F 28.9 °F 88% 30.00 in 10.0 mi North 9.2 mph 18.4 mph N/A   Overcast
5:15 PM 32.2 °F 22.7 °F 29.1 °F 88% 30.01 in 10.0 mi North 12.7 mph 18.4 mph N/A   Overcast
5:35 PM 32.2 °F 23.2 °F 29.1 °F 88% 30.01 in 10.0 mi North 11.5 mph 18.4 mph N/A   Overcast
5:55 PM 32.0 °F 24.2 °F 29.1 °F 89% 30.02 in 10.0 mi North 9.2 mph - N/A   Overcast
6:15 PM 32.0 °F 24.8 °F 29.3 °F 90% 30.03 in 10.0 mi North 8.1 mph 16.1 mph N/A   Overcast
6:35 PM 32.0 °F 26.4 °F 29.1 °F 89% 30.03 in 10.0 mi North 5.8 mph 17.3 mph N/A   Overcast
6:55 PM 31.8 °F 23.9 °F 29.3 °F 90% 30.02 in 10.0 mi North 9.2 mph 19.6 mph N/A   Overcast
7:15 PM 31.6 °F 22.6 °F 29.8 °F 93% 30.01 in 5.0 mi North 11.5 mph 17.3 mph N/A Snow Light Snow
7:35 PM 31.5 °F 23.5 °F 30.0 °F 94% 30.01 in 7.0 mi North 9.2 mph - N/A Snow Light Snow
7:55 PM 31.5 °F 26.8 °F 30.0 °F 94% 30.03 in 5.0 mi North 4.6 mph - N/A Snow Light Snow
8:15 PM 31.1 °F 25.4 °F 30.0 °F 96% 30.03 in 4.0 mi North 5.8 mph - N/A Snow Light Snow
8:35 PM 31.1 °F 26.4 °F 30.0 °F 96% 30.01 in 5.0 mi North 4.6 mph - N/A   Overcast
8:55 PM 31.1 °F 25.4 °F 30.0 °F 96% 30.04 in 4.0 mi North 5.8 mph - N/A Snow Light Snow
9:15 PM 31.1 °F 26.4 °F 29.8 °F 95% 30.03 in 10.0 mi North 4.6 mph - 0.01 in   Overcast
9:35 PM 31.1 °F 24.5 °F 29.8 °F 95% 30.04 in 4.0 mi NNW 6.9 mph - 0.01 in Snow Light Snow
9:55 PM 30.7 °F 24.1 °F 29.3 °F 94% 30.04 in 4.0 mi NNW 6.9 mph - 0.01 in Snow Light Snow
10:15 PM 30.2 °F 24.3 °F 29.1 °F 96% 30.04 in 3.0 mi NNW 5.8 mph - N/A Snow Light Snow
10:35 PM 30.2 °F 22.6 °F 28.9 °F 95% 30.05 in 4.0 mi NW 8.1 mph - N/A Snow Light Snow
10:55 PM 29.3 °F 19.1 °F 28.2 °F 96% 30.05 in 3.0 mi NNW 12.7 mph - N/A Snow Light Snow
11:15 PM 28.9 °F 18.2 °F 27.3 °F 94% 30.06 in 3.0 mi NW 13.8 mph - 0.01 in Snow Light Snow
11:35 PM 28.6 °F 19.3 °F 27.1 °F 94% 30.07 in 2.0 mi NNW 10.4 mph 17.3 mph 0.01 in Snow Light Snow
11:55 PM 28.2 °F 18.3 °F 26.6 °F 94% 30.07 in 2.0 mi NNW 11.5 mph - 0.01 in Snow Light Snow